Regional Weather Roundup
Issued by NWS

Home | Current Version | Previous Version | Graphics & Text | Print | Product List | Glossary On
Versions: 1 2 3 4 5 6 7 8 9 10 11 12 13 14 15 16 17 18 19 20 21 22 23 24 25 26 27 28 29 30 31 32 33 34 35 36 37 38 39 40 41 42 43 44 45 46 47 48 49 50
000
ASUS44 KMEG 222010
RWRTN
TENNESSEE HOURLY STATE WEATHER ROUNDUP
NATIONAL WEATHER SERVICE MEMPHIS TN
300 PM CDT WED OCT 22 2014

TNZ002-004-019-021-049-052-054-088>092-222100-
WEST TENNESSEE

CITY           SKY/WX    TMP DP  RH WIND       PRES   REMARKS
MEMPHIS INTL   SUNNY     68  41  37 NE8       30.19F
JACKSON        SUNNY     66  41  40 N8        30.20F
DYERSBURG      SUNNY     64  37  36 E7G16     30.22F
UNION CITY     SUNNY     63  39  42 NE8       30.21F
PARIS          SUNNY     61  41  48 NE9       30.21F
LEXINGTON      SUNNY     63  41  45 NE7       30.19F
SAVANNAH       SUNNY     66  43  42 NE5       30.18F
$$

TNZ008-025-027-028-033-062-065-066-222100-
NORTH MIDDLE TENNESSEE

CITY           SKY/WX    TMP DP  RH WIND       PRES   REMARKS
NASHVILLE      SUNNY     64  41  42 N8        30.21F
CLARKSVILLE    SUNNY     63  40  42 NE9       30.21F
SMYRNA         SUNNY     63  42  46 N12       30.21F
COOKEVILLE     SUNNY     61  43  51 NE6       30.19S
CROSSVILLE     SUNNY     60  38  43 N10       30.19S
$$

TNZ061-075-076-078-094-096-097-222100-
SOUTH MIDDLE TENNESSEE

CITY           SKY/WX    TMP DP  RH WIND       PRES   REMARKS
FAYETTEVILLE   SUNNY     61  39  44 NE10      30.16F
TULLAHOMA      SUNNY     61  37  41 E10       30.18F
WINCHESTER     SUNNY     61  43  51 N8        30.17F
MCMINNVILLE    SUNNY     61  43  51 NE6       30.19F
COLUMBIA       SUNNY     64  43  45 NE7       30.17S
SHELBYVILLE    SUNNY     63  45  51 NE9       30.18F
$$

TNZ017-018-042-046-047-222100-
NORTHEAST TENNESSEE

CITY           SKY/WX    TMP DP  RH WIND       PRES   REMARKS
TRI CITIES     PTSUNNY   50  40  68 N10       30.20S
ELIZABETHTON   CLOUDY    46  39  76 W5        30.19S
$$

TNZ012-013-036-069-073-074-222100-
CENTRAL EAST TENNESSEE

CITY           SKY/WX    TMP DP  RH WIND       PRES   REMARKS
KNOXVILLE      MOSUNNY   59  40  49 NE14G20   30.16F
OAK RIDGE      SUNNY     62  40  44 E9        30.18F
GATLINBURG     MOCLDY    57  37  47 VRB7      30.17F
MORRISTOWN     PTCLDY    57  41  54 N10       30.19S
$$

TNZ083-085-099-222100-
SOUTHEAST TENNESSEE

CITY           SKY/WX    TMP DP  RH WIND       PRES   REMARKS
CHATTANOOGA    SUNNY     64  40  41 N10       30.16F
$$

SKY/WX REPORTED AS FAIR MEANS FEW OR NO CLOUDS BELOW
12 THOUSAND FEET.




USA.gov is the U.S. government's official web portal to all federal, state and local government web resources and services.